[[{"header":{"parameterUnit":"m.s-1","parameterCategory":1,"la1":30.2991,"la2":30.254,"lo1":-89.0895,"lo2":-89.0444,"dy":0.0017,"dx":0.0017,"nx":28,"ny":28,"refTime":"2025-07-22T03:00:00:Z","depth":0,"parameterNumber":2,"parameterNumberName":"U-component_of_WINDS"},"data":[0,0,0,0,0,0,0,0,0,0,0,0,0,0,0,0,0,0,0,0,0,0,0,0,0,0,0,0,0,0,0,0,0,0,0,0,0,0,0,0,0,0,0,0,0,0,0,0,0,0,0,0,0,0,0,0,0,0,3.2302,3.2303,0,3.2368,3.2369,3.237,3.2306,3.2303,3.23,3.2298,3.2369,3.2373,3.2377,0,0,0,0,0,0,0,0,0,0,0,0,0,3.2124,3.2128,3.2302,3.2303,3.2304,3.2368,3.2369,3.237,3.2306,3.2303,3.23,3.2297,3.2368,3.2373,3.2378,0,0,0,0,0,0,0,0,0,0,0,0,0,3.2197,3.2129,3.2302,3.228,3.2278,3.2368,3.2369,3.237,3.2307,3.2303,3.2299,3.2295,3.2366,3.2372,3.2378,3.2495,0,0,3.2398,3.2401,0,0,0,0,0,0,0,0,3.2193,3.2204,3.2282,3.2281,3.228,3.2325,3.2332,3.2412,3.2308,3.2296,3.2298,3.2294,3.2358,3.2364,3.2385,3.2498,3.2501,3.2399,3.2402,3.2405,3.2407,0,0,0,0,0,0,0,3.2188,3.2201,3.2328,3.2283,3.2282,3.2267,3.2274,3.2347,3.2348,3.2297,3.2292,3.2301,3.2356,3.2379,3.2387,3.2502,3.2398,3.2404,3.2408,3.2411,3.2716,3.272,0,0,0,0,0,0,3.2185,3.2197,3.2326,3.233,3.2226,3.2274,3.2281,3.2314,3.2347,3.2348,3.2304,3.2297,3.237,3.2379,3.2389,3.2528,3.2405,3.2411,3.2415,3.2711,3.2717,3.2721,0,0,0,0,0,0,3.2182,3.2197,3.2324,3.2262,3.2277,3.2281,3.2319,3.2318,3.234,3.2352,3.2352,3.2327,3.2368,3.238,3.2469,3.253,3.2414,3.242,3.2706,3.2713,3.2719,3.2808,0,0,0,0,0,0,3.2177,3.2196,3.224,3.2264,3.2281,3.2402,3.2323,3.2322,3.2351,3.2344,3.2374,3.2375,3.2365,3.246,3.2475,3.2537,3.2425,3.2701,3.2709,3.2717,3.28,3.2817,3.2831,0,0,0,0,0,3.2171,3.2262,3.2242,3.2258,3.2335,3.2406,3.2415,3.2401,3.2356,3.2401,3.2408,3.2374,3.2521,3.247,3.2487,3.2551,3.2697,3.2707,3.2716,3.2793,3.2813,3.2831,0,0,0,0,0,0,3.2246,3.2265,3.2243,3.2345,3.2374,3.2394,3.245,3.2424,3.2467,3.2458,3.244,3.2447,3.2542,3.2555,3.2498,3.2666,3.2602,3.2615,3.2654,3.2674,3.2689,3.2685,3.243,0,0,0,0,0,3.2274,3.2329,3.2343,3.2432,3.2448,3.2447,3.2477,3.2463,3.2493,3.2506,3.2519,3.2551,3.2604,3.2639,3.2689,3.2801,3.2808,3.2854,3.2869,3.2882,3.2895,3.2957,3.2978,3.2753,3.2753,3.2752,0,0,3.2334,3.2351,3.2387,3.2448,3.2468,3.2527,3.2457,3.2522,3.2565,3.2516,3.2601,3.2613,3.2646,3.2748,3.2794,3.2762,3.2958,3.2895,3.2905,3.291,3.2969,3.299,3.3009,3.2759,3.2758,3.2757,0,0,3.2472,3.249,3.2567,3.2589,3.2622,3.262,3.2639,3.2664,3.2669,3.2755,3.2719,3.2771,3.2863,3.2889,3.2914,3.3064,3.3035,3.308,3.3163,3.3224,3.3242,3.3258,3.3313,3.3333,3.3092,3.3093,3.3093,0,3.2543,3.2628,3.261,3.2677,3.2706,3.2663,3.2741,3.2764,3.2812,3.2833,3.2797,3.2912,3.2931,3.3039,3.3076,3.3097,3.3119,3.3077,3.3241,3.3256,3.3271,3.3323,3.3344,3.3098,3.3097,3.3097,3.3096,0,3.2714,3.2774,3.2832,3.2878,3.2913,3.2986,3.298,3.3018,3.3002,3.3006,3.3094,3.3116,3.317,3.3194,3.3179,3.3301,3.3281,3.3243,3.3178,3.3298,3.3347,3.3367,3.3106,3.3104,3.3102,3.3101,0,0,3.2902,3.2937,3.2959,3.2981,3.3014,3.306,3.3132,3.3184,3.3218,3.3252,3.3313,3.3392,3.3357,3.3386,3.3374,3.3427,3.3547,3.3383,3.3383,3.3414,3.3684,3.3714,3.3737,3.3527,3.3531,3.3534,3.3682,0,3.3043,3.3166,3.3152,3.327,3.3326,3.3287,3.3349,3.3377,3.3382,3.3432,3.3438,3.3495,3.3444,3.3461,3.3512,3.3521,3.3601,3.351,3.3585,3.3588,3.3579,3.3762,3.3794,3.3933,3.3701,3.3704,3.3706,0,3.3223,3.3264,3.3387,3.3413,3.3436,3.3493,3.354,3.3587,3.3619,3.3619,3.3652,3.363,3.3704,3.3637,3.374,3.3678,3.3708,3.3717,3.3722,3.373,3.3655,3.3777,3.3976,3.3998,3.3736,3.3734,3.3732,0,3.335,3.3436,3.3521,3.354,3.3572,3.3613,3.3628,3.3656,3.3688,3.373,3.3751,3.3801,3.3829,3.3869,3.3863,3.3814,3.3968,3.39,3.3972,3.3972,3.4007,3.4005,3.4216,3.4024,3.4024,3.4023,3.4023,0,3.351,3.3588,3.3579,3.3631,3.3718,3.3702,3.3788,3.3799,3.3824,3.3879,3.3848,3.3901,3.3888,3.3941,3.3937,3.4024,3.4036,3.404,3.4038,3.4043,3.4043,3.4064,3.4054,3.4029,3.4028,3.4027,3.4026,0,3.3667,3.3664,3.3754,3.3777,3.3784,3.3848,3.3867,3.3918,3.392,3.3991,3.4007,3.4012,3.4072,3.407,3.4139,3.4136,3.4243,3.4229,3.4232,3.423,3.4303,3.4297,3.4535,3.4567,3.4353,3.4355,3.4357,0,3.377,3.3828,3.3857,3.3891,3.3909,3.3965,3.3998,3.3985,3.4021,3.4062,3.4108,3.4166,3.4212,3.4311,3.4322,3.4375,3.4363,3.4443,3.4371,3.4376,3.4367,3.4364,3.4371,3.4458,3.446,3.4462,3.4464,0,3.3953,3.3949,3.3997,3.4045,3.4086,3.4123,3.4158,3.4188,3.4179,3.4221,3.4282,3.4318,3.4388,3.4447,3.4498,3.4515,3.449,3.4486,3.4506,3.4513,3.4513,3.4516,3.4273,3.4481,3.4479,3.4478,3.4477,3.4477,3.4087,3.4138,3.4167,3.4222,3.4246,3.428,3.4329,3.4337,3.4388,3.4444,3.4433,3.4503,3.4534,3.46,3.4622,3.4677,3.4649,3.4677,3.4685,3.4693,3.4702,3.4503,3.4687,3.4686,3.4686,3.4685,3.4685,0,3.427,3.4287,3.4338,3.4387,3.4431,3.4401,3.4438,3.4477,3.4538,3.4569,3.4615,3.4686,3.4743,3.4758,3.4814,3.4855,3.4845,3.487,3.4868,3.4873,3.4723,3.4701,3.4878,3.4878,3.4878,3.4878,3.4878,3.4878,3.4371,3.4456,3.4456,3.4554,3.4569,3.4637,3.4661,3.4692,3.4717,3.4798,3.4844,3.4853,3.4879,3.4936,3.4987,3.499,3.5013,3.5044,3.5043,3.4902,3.4883,3.4865,3.4844,3.5048,3.5049,3.5188,3.5189,3.519]},{"header":{"parameterUnit":"m.s-1","parameterCategory":1,"la1":30.2991,"la2":30.254,"lo1":-89.0895,"lo2":-89.0444,"dy":0.0017,"dx":0.0017,"nx":28,"ny":28,"refTime":"2025-07-22T03:00:00:Z","depth":0,"parameterNumber":3,"parameterNumberName":"V-component_of_WINDS"},"data":[0,0,0,0,0,0,0,0,0,0,0,0,0,0,0,0,0,0,0,0,0,0,0,0,0,0,0,0,0,0,0,0,0,0,0,0,0,0,0,0,0,0,0,0,0,0,0,0,0,0,0,0,0,0,0,0,0,0,-2.1989,-2.199,0,-2.2113,-2.2115,-2.2116,-2.2137,-2.2135,-2.2134,-2.2133,-2.2261,-2.2266,-2.227,0,0,0,0,0,0,0,0,0,0,0,0,0,-2.177,-2.1774,-2.1989,-2.199,-2.1992,-2.2113,-2.2115,-2.2116,-2.2137,-2.2135,-2.2134,-2.2133,-2.226,-2.2265,-2.227,0,0,0,0,0,0,0,0,0,0,0,0,0,-2.1877,-2.1775,-2.1988,-2.2017,-2.202,-2.2113,-2.2115,-2.2117,-2.2137,-2.2135,-2.2134,-2.2132,-2.2258,-2.2265,-2.2271,-2.2344,0,0,-2.2291,-2.2294,0,0,0,0,0,0,0,0,-2.1871,-2.1885,-2.2011,-2.2015,-2.2019,-2.2108,-2.2085,-2.2193,-2.2137,-2.2093,-2.2133,-2.2131,-2.2212,-2.2222,-2.2249,-2.235,-2.2356,-2.2292,-2.2296,-2.2299,-2.2301,0,0,0,0,0,0,0,-2.1863,-2.188,-2.2038,-2.2013,-2.2018,-2.2023,-2.2037,-2.2105,-2.216,-2.2096,-2.2098,-2.2113,-2.2214,-2.2242,-2.2252,-2.2358,-2.2292,-2.2298,-2.2302,-2.2304,-2.2526,-2.2528,0,0,0,0,0,0,-2.1851,-2.1873,-2.2034,-2.2042,-2.1939,-2.2029,-2.2044,-2.2081,-2.2159,-2.2169,-2.2114,-2.2113,-2.2232,-2.2244,-2.2257,-2.2348,-2.2299,-2.2305,-2.2309,-2.2525,-2.2527,-2.2529,0,0,0,0,0,0,-2.1846,-2.1865,-2.2029,-2.1958,-2.1979,-2.2034,-2.2076,-2.2084,-2.2113,-2.2172,-2.2182,-2.2133,-2.2231,-2.2247,-2.2323,-2.2353,-2.2308,-2.2314,-2.2522,-2.2525,-2.2528,-2.2531,0,0,0,0,0,0,-2.184,-2.1863,-2.1891,-2.1959,-2.1983,-2.2092,-2.2078,-2.2088,-2.2124,-2.2125,-2.2193,-2.2203,-2.2231,-2.2313,-2.2329,-2.2361,-2.2319,-2.252,-2.2524,-2.2527,-2.2528,-2.2533,-2.2538,0,0,0,0,0,-2.1832,-2.1887,-2.1892,-2.1912,-2.2019,-2.2094,-2.2108,-2.2139,-2.2127,-2.2155,-2.2194,-2.2201,-2.2347,-2.232,-2.2339,-2.2373,-2.2518,-2.2522,-2.2527,-2.2526,-2.2532,-2.2538,0,0,0,0,0,0,-2.1821,-2.1896,-2.1903,-2.1981,-2.2031,-2.2097,-2.2135,-2.2145,-2.22,-2.2197,-2.2234,-2.2249,-2.2323,-2.2356,-2.2325,-2.2449,-2.2431,-2.244,-2.2424,-2.2431,-2.2436,-2.2426,-2.2325,0,0,0,0,0,-2.1828,-2.1882,-2.1945,-2.2008,-2.2033,-2.2079,-2.2113,-2.2133,-2.2186,-2.2207,-2.2251,-2.2303,-2.236,-2.2397,-2.2454,-2.2533,-2.2549,-2.2566,-2.2571,-2.2574,-2.2581,-2.2627,-2.2635,-2.2543,-2.2543,-2.2543,0,0,-2.1843,-2.189,-2.1922,-2.2007,-2.2048,-2.2104,-2.2097,-2.2156,-2.2198,-2.2216,-2.229,-2.2324,-2.2384,-2.2462,-2.2499,-2.2492,-2.261,-2.258,-2.2582,-2.2588,-2.2632,-2.2641,-2.2648,-2.2546,-2.2546,-2.2545,0,0,-2.1898,-2.1939,-2.1997,-2.2038,-2.21,-2.2131,-2.2145,-2.221,-2.2233,-2.2308,-2.2323,-2.2374,-2.2472,-2.2514,-2.2549,-2.2621,-2.263,-2.2638,-2.2664,-2.2707,-2.2715,-2.2721,-2.2748,-2.2757,-2.2645,-2.2645,-2.2645,0,-2.1908,-2.1993,-2.2025,-2.2084,-2.2121,-2.214,-2.2199,-2.2238,-2.2315,-2.2341,-2.2332,-2.2456,-2.2498,-2.2587,-2.2604,-2.2631,-2.2649,-2.2631,-2.2711,-2.2718,-2.2725,-2.275,-2.276,-2.2646,-2.2646,-2.2646,-2.2646,0,-2.2003,-2.2061,-2.2101,-2.2175,-2.2217,-2.2275,-2.2317,-2.2355,-2.2372,-2.2404,-2.248,-2.2531,-2.2598,-2.2621,-2.2637,-2.2712,-2.2706,-2.2703,-2.2687,-2.2734,-2.2758,-2.2768,-2.2647,-2.2646,-2.2646,-2.2646,0,0,-2.2055,-2.2147,-2.216,-2.2195,-2.2265,-2.2311,-2.2371,-2.2437,-2.2469,-2.2522,-2.2574,-2.2657,-2.2656,-2.2695,-2.2717,-2.2755,-2.281,-2.2748,-2.275,-2.2759,-2.2897,-2.2898,-2.2909,-2.2816,-2.2818,-2.282,-2.2892,0,-2.2119,-2.2226,-2.2257,-2.2347,-2.2402,-2.2422,-2.2474,-2.2523,-2.2555,-2.2606,-2.2642,-2.27,-2.2694,-2.2717,-2.2756,-2.2795,-2.2838,-2.279,-2.2865,-2.2868,-2.285,-2.2922,-2.2924,-2.2989,-2.2902,-2.2903,-2.2905,0,-2.2207,-2.2262,-2.2358,-2.2422,-2.2446,-2.2493,-2.2556,-2.2605,-2.2661,-2.2682,-2.2726,-2.2745,-2.2809,-2.2788,-2.2878,-2.2844,-2.2877,-2.2901,-2.2904,-2.2913,-2.2889,-2.2933,-2.301,-2.302,-2.292,-2.2919,-2.2918,0,-2.2236,-2.2334,-2.2404,-2.2433,-2.2509,-2.2542,-2.2575,-2.263,-2.2668,-2.2723,-2.2748,-2.2811,-2.2845,-2.2893,-2.2928,-2.291,-2.3015,-2.2997,-2.3034,-2.3033,-2.3055,-2.3053,-2.3139,-2.3075,-2.3075,-2.3075,-2.3075,0,-2.2305,-2.2363,-2.2418,-2.2461,-2.2527,-2.2563,-2.2627,-2.2662,-2.271,-2.2761,-2.2782,-2.2829,-2.2873,-2.2926,-2.2954,-2.3024,-2.3039,-2.3058,-2.3065,-2.3056,-2.3054,-2.3078,-2.3075,-2.3078,-2.3077,-2.3077,-2.3076,0,-2.2348,-2.2387,-2.2465,-2.2531,-2.2549,-2.2595,-2.2652,-2.2695,-2.2728,-2.2792,-2.2809,-2.286,-2.2924,-2.2964,-2.3045,-2.3064,-2.3141,-2.3146,-2.3122,-2.3125,-2.316,-2.3156,-2.3265,-2.3282,-2.3206,-2.3207,-2.3207,0,-2.2389,-2.2434,-2.2505,-2.254,-2.2574,-2.2631,-2.267,-2.2707,-2.2747,-2.2815,-2.285,-2.2915,-2.2969,-2.3071,-2.3116,-2.3178,-2.3185,-2.3219,-2.3195,-2.3185,-2.3187,-2.3184,-2.3189,-2.3223,-2.3224,-2.3224,-2.3225,0,-2.2458,-2.2475,-2.253,-2.2593,-2.2638,-2.2689,-2.274,-2.2768,-2.2814,-2.2858,-2.2923,-2.2965,-2.3049,-2.3113,-2.318,-2.3215,-2.3228,-2.3232,-2.3244,-2.3236,-2.322,-2.323,-2.3134,-2.3229,-2.3229,-2.3229,-2.3228,-2.3228,-2.2502,-2.2543,-2.26,-2.2661,-2.2703,-2.275,-2.2794,-2.2832,-2.2888,-2.2958,-2.2977,-2.3046,-2.3102,-2.3193,-2.323,-2.3285,-2.328,-2.3297,-2.3301,-2.3305,-2.3306,-2.3211,-2.3297,-2.3297,-2.3297,-2.3297,-2.3296,0,-2.2572,-2.261,-2.2666,-2.2736,-2.2784,-2.2792,-2.2849,-2.2889,-2.2949,-2.3001,-2.3054,-2.313,-2.3193,-2.3243,-2.3308,-2.3343,-2.335,-2.3359,-2.3357,-2.3365,-2.3306,-2.329,-2.3351,-2.3351,-2.3351,-2.3351,-2.3351,-2.3351,-2.2615,-2.2685,-2.271,-2.2802,-2.2839,-2.2907,-2.2939,-2.2983,-2.3024,-2.3108,-2.3161,-2.3193,-2.3244,-2.3313,-2.3372,-2.3385,-2.3409,-2.3416,-2.343,-2.3375,-2.3369,-2.3363,-2.3348,-2.3421,-2.3421,-2.3485,-2.3485,-2.3486]}]]